Location: Vista Encantada
(35.1109°N, 106.5681°W)
Time: 09:26:05
(UTC+00:00)

Cosmos 1140 Rocket - Pass Details

Date: 29 October 2020
Orbit: 744 x 767 km, 74.1° (Epoch: 04 December)

Event Time Altitude Azimuth Distance (km) Brightness Sun altitude
Rises 12:24:37 0° 197° (SSW) 3,175 6.6 -12.9°
Reaches altitude 10° 12:26:58 10° 197° (SSW) 2,253 5.8 -12.5°
Maximum altitude 12:32:05 87° 287° (WNW) 750 3.4 -11.4°
Drops below altitude 10° 12:37:13 10° 17° (NNE) 2,262 6.0 -10.4°
Sets 12:39:34 0° 17° (NNE) 3,190 6.8 -9.9°
